Simultaneous Nadir Overpasses (SNOs) Predictions

Prediction of SNOs between NOAA-15 and METOP-C Satellite Orbit:

Table of predicted SNOs for the next 14.0 days since TLE Epoch: 1/18/2022
Index Date (NOAA-15) Time (NOAA-15) Lat,Lon (NOAA-15) SZA (NOAA-15 ) Date (METOP-C) Time (METOP-C) Lat,Lon (METOP-C) SZA (METOP-C ) Distance(km) Time Diff (sec)
1 01/31/2022 06:32:46 81.04, 119.93 99.91 01/31/2022 06:31:32 81.01, 119.44 99.82 8.89 74
2 01/31/2022 07:23:21 -81.04, -72.78 80.11 01/31/2022 07:22:12 -81.04, -72.69 80.13 1.56 69
3 01/31/2022 08:13:48 81.04, 94.68 99.89 01/31/2022 08:12:52 81.04, 94.69 99.87 0.23 56
4 01/31/2022 09:04:23 -81.04, -98.04 80.13 01/31/2022 09:03:34 -81.03, -98.19 80.17 2.80 49
5 01/31/2022 09:54:50 81.04, 69.43 99.87 01/31/2022 09:54:13 81.05, 69.56 99.88 2.64 37
6 01/31/2022 10:45:25 -81.04,-123.29 80.15 01/31/2022 10:44:55 -81.04,-123.31 80.16 0.33 30
7 01/31/2022 11:35:52 81.04, 44.17 99.85 01/31/2022 11:35:35 81.04, 44.07 99.84 1.90 17
8 01/31/2022 12:26:27 -81.04,-148.55 80.17 01/31/2022 12:26:16 -81.05,-148.43 80.16 2.16 11
9 01/31/2022 13:16:54 81.04, 18.92 99.83 01/31/2022 13:16:56 81.05, 18.94 99.84 1.57 2
10 01/31/2022 14:07:28 -81.04,-173.80 80.19 01/31/2022 14:07:37 -81.04,-173.92 80.20 2.18 9
11 01/31/2022 14:57:56 81.05, -6.70 99.79 01/31/2022 14:58:17 81.04, -6.55 99.80 2.80 21
12 01/31/2022 15:48:30 -81.04, 160.95 80.21 01/31/2022 15:48:58 -81.05, 160.95 80.19 1.26 28
13 01/31/2022 16:38:58 81.05, -31.96 99.77 01/31/2022 16:39:39 81.04, -32.05 99.77 2.23 41
14 01/31/2022 17:29:33 -81.06, 135.32 80.25 01/31/2022 17:30:20 -81.04, 135.46 80.23 2.67 47
15 01/31/2022 18:20:00 81.05, -57.21 99.75 01/31/2022 18:21:00 81.05, -57.17 99.77 0.93 60



Historial Predications of SNOs between NOAA-15 and METOP-C
